Vorticity
7 6 7 6 6 7 5 4 4 4 5 6 6 8 10 11 9 9 7 5 6 5 4 3 2 3 5 5 5 5 2 2 2 2 3 3 3 3 4 5 4 4 4 6 6 7 7
5 5 5 6 6 5 7 6 4 4 4 3 6 7 11 9 8 7 6 6 6 5 4 4 3 2 3 4 4 3 2 2 3 3 3 3 4 3 4 4 4 5 5 6 6 6 7
4 5 6 5 6 6 7 6 7 7 6 5 5 5 8 10 7 6 6 6 5 5 5 5 4 4 3 2 4 3 2 3 4 3 4 4 4 4 4 5 4 5 5 6 5 6 7
5 5 6 7 7 7 8 8 8 7 9 9 7 6 6 7 9 7 6 6 5 5 5 5 4 5 4 3 3 5 5 6 4 5 4 3 4 4 4 5 4 5 5 5 6 5 6
5 5 5 5 5 5 5 6 7 10 9 8 9 9 8 8 6 8 8 7 6 6 5 4 4 4 5 5 4 5 5 5 4 4 4 4 4 4 4 4 5 6 6 6 5 4 5
6 6 5 4 5 4 4 5 6 6 8 10 9 9 9 8 7 7 7 8 6 5 5 5 6 5 7 8 6 4 5 5 4 4 4 4 3 4 5 4 7 6 6 6 5 5 6
12 7 6 5 4 4 3 3 4 5 6 7 8 10 9 9 8 7 7 7 7 6 4 5 5 6 6 6 6 5 5 4 4 3 4 4 4 6 4 7 6 6 5 5 6 7 7
7 11 8 6 6 5 4 4 4 5 4 4 5 6 7 8 8 8 8 7 6 7 5 6 5 5 5 5 5 6 6 5 5 6 6 6 7 6 7 7 7 6 5 6 8 6 6
4 5 9 9 7 6 6 5 6 6 5 6 6 6 6 6 7 7 6 6 6 7 7 3 7 6 5 5 7 8 7 7 6 7 6 6 8 7 9 7 4 4 8 8 5 6 6
4 3 4 6 8 8 6 6 6 6 6 6 7 7 7 7 7 6 5 6 6 6 7 5 5 8 10 10 9 11 10 10 10 11 9 6 7 6 3 5 6 7 5 4 7 5 4
4 5 4 3 4 5 6 8 6 5 5 4 5 5 6 6 7 7 7 7 7 5 7 10 12 11 11 9 8 6 5 4 2 2 4 6 7 7 5 7 8 8 3 6 6 4 6
3 4 4 4 4 4 3 3 5 6 5 5 5 4 4 5 5 5 6 6 6 7 8 2 1 2 3 5 5 7 7 7 4 4 3 2 4 5 4 4 2 4 8 4 3 4 5
7 6 5 4 5 5 5 5 4 3 3 5 5 5 4 5 4 4 5 5 5 3 4 5 3 3 3 4 5 5 5 4 4 6 4 4 4 5 6 6 5 4 5 6 5 4 4
2 6 10 9 7 6 4 5 5 5 5 4 3 3 3 4 4 4 4 5 6 1 2 4 3 4 3 3 3 3 4 3 4 4 4 4 5 4 4 4 5 5 5 4 5 7 4
14 13 11 7 3 8 11 9 6 6 6 5 6 8 7 5 5 4 4 4 4 4 3 5 4 4 5 4 5 5 5 5 5 5 6 7 6 6 6 5 4 4 3 4 5 3 5
7 12 7 11 9 16 14 3 12 15 9 7 6 6 7 7 7 7 7 6 6 6 5 5 5 5 5 5 5 5 6 6 6 5 4 4 5 4 4 4 4 6 7 7 5 5 6
12 8 14 16 16 6 9 15 14 8 11 14 12 9 8 7 7 7 7 7 7 6 5 6 5 6 6 5 5 5 5 5 5 6 6 6 6 6 5 6 7 6 4 7 7 4 6
12 9 6 14 21 11 17 4 12 18 8 7 7 11 12 13 10 9 10 8 8 8 9 8 6 7 7 6 5 5 6 6 6 6 6 7 7 4 6 5 5 6 7 10 8 3 9
15 12 17 5 8 12 12 7 7 6 11 17 13 14 17 13 9 6 2 3 6 10 9 13 14 11 10 10 9 8 8 8 8 6 7 8 5 6 8 8 11 10 8 4 7 8 5
4 6 3 2 2 4 6 7 8 7 7 7 6 8 8 3 10 19 14 12 9 5 4 4 4 5 6 5 8 6 7 6 9 10 9 12 9 10 9 6 7 7 5 8 15 8 19
15 10 7 8 10 13 12 15 19 14 15 19 14 12 11 10 10 9 8 5 7 8 14 12 13 11 7 7 5 6 7 9 8 7 7 7 9 10 11 13 14 16 15 11 11 16 2
24 33 36 30 23 19 15 15 11 19 27 22 28 26 27 24 20 17 17 15 14 12 10 11 11 8 8 8 10 8 10 11 8 8 11 9 -2 4 -3 -0 4 3 8 15 9 8 -2
4 0 5 7 8 8 7 7 7 6 9 12 22 21 22 26 23 21 16 20 17 18 17 19 13 13 15 15 13 11 10 10 9 9 11 10 10 13 12 17 15 6 14 22 20 13 11
4 6 7 5 4 2 2 -1 -3 -1 5 6 3 6 15 24 22 25 21 18 17 18 19 16 23 21 17 22 24 25 23 20 19 16 14 16 13 7 11 11 10 15 8 -1 8 22 27
5 5 3 2 2 2 2 3 3 4 6 6 10 9 15 32 24 19 18 17 18 15 14 15 19 24 26 19 17 14 17 23 33 30 31 27 13 7 2 10 0 20 9 25 31 25 42
4 5 6 5 5 5 5 5 6 7 6 3 7 6 13 29 35 27 29 18 15 16 16 12 14 13 16 18 19 16 16 16 12 16 15 20 34 30 44 17 -33 -27 23 15 13 39 17
1 1 4 3 5 6 7 4 4 6 6 5 5 7 16 37 27 26 31 32 27 20 17 12 9 12 12 14 14 14 12 10 11 14 12 6 9 15 22 36 44 19 3 -1 -11 -9 -7
4 4 4 5 3 5 6 5 6 7 7 9 5 11 28 35 17 21 22 24 25 22 20 14 16 14 11 11 13 17 15 10 10 10 10 12 16 17 16 14 18 33 29 5 9 8 -6
4 5 4 2 4 5 2 7 5 6 11 8 8 19 36 18 12 14 19 21 21 18 17 11 15 17 20 12 10 10 11 12 13 14 18 20 18 22 25 28 20 25 30 32 23 6 4
Height
5788 5788 5788 5787 5788 5789 5790 5791 5792 5794 5795 5796 5797 5798 5799 5799 5801 5803 5804 5806 5807 5808 5810 5811 5812 5814 5815 5816 5816 5816 5817 5817 5817 5816 5816 5815 5815 5814 5814 5813 5812 5811 5811 5809 5808 5807 5806
5790 5790 5789 5789 5789 5790 5791 5792 5793 5794 5795 5796 5797 5797 5798 5799 5800 5802 5804 5805 5806 5807 5808 5809 5810 5811 5813 5814 5813 5813 5814 5814 5813 5813 5813 5812 5812 5811 5810 5809 5809 5808 5806 5805 5804 5803 5802
5791 5790 5790 5790 5790 5791 5791 5792 5792 5793 5794 5795 5796 5797 5797 5797 5799 5800 5802 5803 5804 5805 5806 5807 5808 5808 5809 5810 5810 5810 5810 5810 5810 5809 5809 5809 5808 5807 5806 5805 5804 5803 5802 5801 5799 5798 5797
5790 5790 5790 5790 5790 5791 5791 5791 5792 5792 5792 5793 5794 5795 5795 5796 5797 5798 5800 5801 5801 5802 5803 5804 5805 5805 5806 5806 5806 5806 5806 5806 5806 5805 5805 5804 5803 5803 5801 5800 5799 5798 5797 5795 5794 5792 5792
5789 5788 5789 5790 5790 5790 5790 5790 5791 5791 5791 5791 5792 5793 5793 5794 5795 5796 5796 5797 5798 5799 5799 5800 5801 5801 5802 5802 5802 5802 5802 5802 5801 5800 5800 5799 5798 5798 5797 5794 5794 5792 5791 5789 5787 5785 5785
5786 5787 5787 5788 5788 5788 5789 5789 5789 5789 5789 5789 5790 5791 5791 5792 5792 5793 5793 5794 5794 5794 5795 5796 5797 5798 5798 5798 5797 5797 5797 5796 5796 5795 5794 5793 5793 5792 5790 5788 5788 5785 5784 5783 5781 5779 5777
5784 5784 5784 5785 5785 5786 5787 5787 5787 5787 5787 5787 5788 5788 5788 5789 5789 5789 5790 5790 5792 5792 5791 5792 5792 5792 5792 5793 5792 5792 5791 5790 5790 5789 5788 5787 5786 5787 5782 5782 5780 5779 5777 5776 5774 5771 5769
5781 5781 5781 5782 5783 5783 5783 5784 5784 5784 5784 5784 5785 5785 5785 5785 5785 5785 5785 5786 5786 5786 5787 5786 5786 5787 5787 5787 5787 5786 5785 5784 5783 5782 5781 5780 5780 5777 5776 5775 5773 5772 5770 5770 5767 5764 5761
5779 5779 5778 5778 5778 5779 5779 5779 5780 5780 5780 5780 5781 5781 5781 5781 5780 5781 5780 5780 5780 5780 5780 5782 5780 5780 5780 5781 5780 5779 5778 5776 5776 5775 5773 5772 5773 5771 5769 5767 5766 5763 5762 5761 5758 5757 5754
5775 5775 5775 5775 5775 5774 5774 5774 5775 5775 5775 5775 5775 5775 5775 5775 5776 5775 5775 5774 5774 5773 5772 5777 5775 5775 5774 5772 5772 5771 5769 5769 5768 5767 5765 5763 5764 5762 5760 5759 5757 5754 5754 5751 5749 5747 5744
5769 5770 5770 5770 5770 5770 5770 5769 5769 5769 5769 5769 5769 5769 5769 5769 5768 5768 5768 5767 5766 5765 5763 5767 5767 5766 5766 5766 5764 5764 5762 5760 5760 5758 5758 5757 5755 5753 5751 5751 5748 5746 5744 5742 5739 5736 5734
5763 5763 5763 5764 5764 5763 5763 5763 5763 5763 5762 5762 5762 5762 5761 5761 5761 5761 5760 5759 5759 5759 5755 5758 5758 5758 5757 5756 5755 5754 5753 5752 5751 5749 5748 5747 5744 5743 5743 5741 5738 5737 5734 5731 5728 5726 5722
5756 5756 5756 5756 5755 5755 5755 5756 5756 5756 5756 5755 5754 5754 5755 5754 5754 5753 5752 5751 5750 5748 5749 5748 5748 5747 5747 5745 5744 5743 5743 5742 5741 5739 5738 5735 5735 5733 5733 5730 5728 5726 5724 5719 5714 5714 5712
5748 5748 5748 5748 5748 5747 5747 5747 5747 5747 5748 5747 5745 5745 5745 5744 5744 5743 5742 5742 5739 5740 5739 5737 5736 5736 5736 5735 5733 5732 5731 5731 5730 5727 5724 5722 5723 5723 5723 5720 5717 5715 5713 5709 5702 5701 5698
5739 5739 5739 5739 5738 5737 5737 5737 5737 5736 5736 5737 5736 5735 5733 5733 5732 5732 5731 5729 5729 5727 5726 5725 5724 5722 5723 5722 5720 5719 5719 5719 5719 5717 5713 5708 5708 5709 5708 5707 5705 5703 5699 5699 5688 5687 5682
5731 5731 5730 5729 5728 5728 5727 5727 5727 5726 5724 5725 5725 5724 5722 5720 5720 5719 5718 5717 5716 5714 5712 5710 5710 5709 5708 5708 5707 5706 5706 5708 5705 5702 5699 5697 5693 5694 5693 5691 5690 5688 5688 5682 5677 5670 5665
5724 5722 5721 5720 5719 5718 5716 5716 5715 5715 5713 5712 5712 5711 5710 5708 5706 5705 5703 5703 5701 5700 5698 5696 5695 5694 5693 5692 5692 5691 5693 5692 5689 5686 5683 5681 5678 5683 5679 5677 5675 5671 5667 5666 5661 5658 5652
5715 5715 5713 5712 5710 5709 5707 5706 5704 5703 5702 5700 5699 5697 5695 5694 5693 5690 5688 5687 5686 5684 5683 5680 5678 5677 5677 5675 5674 5673 5677 5674 5672 5668 5665 5663 5656 5660 5662 5660 5657 5653 5653 5650 5643 5643 5636
5708 5707 5705 5703 5702 5700 5699 5697 5695 5693 5691 5690 5686 5684 5681 5678 5675 5673 5672 5671 5669 5667 5666 5664 5662 5659 5659 5659 5656 5657 5658 5658 5655 5651 5647 5644 5638 5638 5643 5643 5641 5637 5638 5633 5628 5623 5618
5701 5699 5698 5695 5694 5692 5689 5686 5684 5681 5679 5677 5676 5672 5668 5664 5661 5657 5655 5653 5652 5649 5647 5644 5643 5641 5641 5641 5638 5638 5639 5637 5637 5634 5631 5626 5623 5619 5622 5627 5622 5616 5616 5617 5610 5601 5600
5695 5692 5690 5688 5685 5682 5679 5676 5671 5668 5665 5662 5659 5655 5652 5648 5644 5640 5637 5635 5632 5631 5629 5626 5624 5622 5621 5620 5619 5618 5618 5618 5618 5617 5615 5610 5604 5604 5603 5606 5603 5598 5599 5598 5591 5587 5579
5688 5685 5683 5680 5678 5674 5670 5666 5662 5657 5651 5647 5642 5637 5633 5628 5623 5620 5617 5615 5611 5608 5607 5607 5603 5604 5600 5598 5596 5599 5595 5596 5599 5602 5596 5592 5584 5584 5582 5590 5586 5579 5581 5578 5576 5572 5567
5683 5680 5678 5675 5671 5667 5663 5658 5653 5649 5642 5635 5628 5622 5617 5611 5604 5597 5593 5591 5588 5586 5586 5581 5582 5582 5580 5577 5575 5575 5575 5577 5579 5577 5575 5571 5567 5565 5562 5568 5564 5561 5557 5559 5556 5548 5546
5678 5676 5673 5668 5664 5659 5654 5649 5643 5636 5630 5623 5616 5609 5602 5593 5584 5577 5573 5569 5565 5564 5564 5562 5558 5557 5558 5555 5556 5555 5554 5554 5552 5556 5550 5546 5545 5547 5544 5551 5541 5541 5536 5534 5533 5527 5525
5673 5670 5665 5661 5656 5650 5644 5638 5632 5625 5617 5610 5603 5595 5585 5574 5565 5558 5553 5550 5548 5544 5542 5542 5541 5537 5538 5537 5538 5538 5538 5535 5530 5533 5531 5529 5526 5527 5526 5531 5530 5521 5518 5514 5509 5508 5506
5666 5662 5658 5653 5648 5642 5636 5629 5622 5614 5606 5597 5589 5579 5568 5555 5545 5540 5536 5533 5531 5530 5528 5526 5521 5522 5522 5522 5521 5519 5519 5518 5519 5518 5515 5511 5509 5507 5506 5508 5509 5506 5502 5497 5495 5494 5485
5659 5655 5650 5645 5639 5633 5625 5618 5610 5602 5594 5584 5575 5565 5553 5539 5528 5521 5518 5516 5515 5514 5516 5515 5511 5509 5509 5508 5508 5507 5506 5503 5501 5500 5503 5502 5497 5492 5488 5486 5485 5486 5484 5482 5478 5476 5469
5652 5648 5642 5637 5629 5622 5615 5607 5599 5591 5581 5570 5560 5548 5537 5527 5518 5509 5506 5502 5501 5502 5503 5502 5501 5499 5498 5498 5497 5495 5493 5490 5488 5486 5484 5484 5483 5480 5476 5472 5471 5468 5465 5464 5458 5453 5452
5645 5640 5634 5627 5619 5611 5604 5595 5587 5579 5569 5558 5546 5533 5522 5516 5508 5501 5497 5495 5493 5492 5492 5490 5489 5489 5489 5487 5486 5484 5481 5479 5476 5475 5471 5471 5467 5463 5462 5458 5453 5450 5448 5446 5441 5438 5436